Weather Roundup
Issued by NWS

Home | Current Version | Previous Version | Graphics & Text | Print | Product List | Glossary Off
Versions: 1 2 3 4 5 6 7 8 9 10 11 12 13 14 15 16 17 18 19 20 21 22 23 24 25 26 27 28 29 30 31 32 33 34 35 36 37 38 39 40 41 42 43 44 45 46 47 48 49 50

000
NZUS93 KARX 060459
HRRWXR

CURRENT HOURLY OBSERVATIONS ACROSS
MUCH OF THE UPPER MISSISSIPPI VALLEY
NATIONAL WEATHER SERVICE LA CROSSE WI
1200 AM CDT FRI MAY 06 2016


...SOUTHEAST MINNESOTA...


CITY           SKY/WX    TMP DP  RH WIND       PRES   REMARKS
ROCHESTER      CLEAR     55  40  56 SW13      29.94F
ROCHESTER/MAYO FAIR      64  37  37 SW10      29.93S
WINONA         CLEAR     54  48  82 CALM      29.92F
AUSTIN         CLEAR     55  37  50 S3        29.94S
ALBERT LEA     CLEAR     63  39  42 SW5       29.95S
DODGE CENTER   PTCLDY    55  39  54 SW8       29.93F
PRESTON        CLEAR     57  35  44 SW10      29.94F
OWATONNA       CLEAR     61  39  44 SW8       29.93S
FARIBAULT      NOT AVBL
$$

...ELSEWHERE IN MINNESOTA...


CITY           SKY/WX    TMP DP  RH WIND       PRES   REMARKS
MINNEAPOLIS    CLEAR     68  41  37 SW8       29.88S
INTNL FALLS    CLEAR     59  44  57 SW6       29.70S
DULUTH         PTCLDY    66  41  40 W12       29.79S
RED WING       CLEAR     52  43  71 CALM      29.88F
REDWOOD FALLS  CLEAR     60  41  49 S9        29.91S
MANKATO        CLEAR     63  39  42 SW7       29.92F
WORTHINGTON    CLEAR     64  41  42 S17       29.95F
FAIRMONT       PTCLDY    61  37  41 SW7       29.94F
$$

...SOUTHWEST WISCONSIN...


CITY           SKY/WX    TMP DP  RH WIND       PRES   REMARKS
LA CROSSE      CLEAR     58  44  60 S6        29.92F
PRAIRIE DU CHI MOCLDY    54  43  66 CALM      29.96S
BOSCOBEL       PTCLDY    52  42  69 SW3       29.96F
LONE ROCK      NOT AVBL
PLATTEVILLE    PTCLDY    54  37  52 S6        29.97S
FORT MC COY    CLEAR     48  41  76 CALM      29.95S HAZE
MAUSTON-NEW LI PTCLDY    51  45  79 CALM      29.94R
VIROQUA        FAIR      57  37  46 S6        29.95F
WIS DELLS      PTCLDY    52  36  54 S3        29.95S
$$

...ELSEWHERE IN WISCONSIN...


CITY           SKY/WX    TMP DP  RH WIND       PRES   REMARKS
MILWAUKEE      PTCLDY    47  37  68 SW3       29.98S
MADISON        CLEAR     46  36  68 CALM      29.96F
GREEN BAY      MOCLDY    52  43  71 S7        29.92F
EAU CLAIRE     NOT AVBL
BLACK RVR FLS  FAIR      45  39  79 CALM      29.92S
MEDFORD        PTCLDY    53  40  61 S7        29.91S
WAUSAU         CLEAR     56  44  64 S3        29.91F
WIS RAPIDS     PTCLDY    52  38  58 S3        29.94S
MARSHFIELD     PTCLDY    54  39  57 S5        29.91F
RICE LAKE      PTCLDY    56  40  53 CALM      29.89S
$$

...NORTHEAST IOWA...


CITY           SKY/WX    TMP DP  RH WIND       PRES   REMARKS
WATERLOO       CLEAR     54  37  52 CALM      29.97S
DUBUQUE        CLEAR     51  38  60 S5        29.99R
DECORAH        CLEAR     57  36  44 SW6       29.95S
MASON CITY     CLEAR     55  40  56 SW6       29.97F
CHARLES CITY   CLEAR     55  36  47 S8        29.96F
OELWEIN        CLEAR     55  37  50 S8        29.98S
$$

...ELSEWHERE IN IOWA...


CITY           SKY/WX    TMP DP  RH WIND       PRES   REMARKS
DES MOINES     CLEAR     56  39  53 S7        30.00F
IOWA CITY      CLEAR     51  39  63 CALM      30.01S
FORT DODGE     CLEAR     54  39  58 CALM      29.98S
MARSHALLTOWN   CLEAR     56  37  49 S6        29.98S
CEDAR RAPIDS   CLEAR     50  40  68 S3        29.98F
$$

...NORTHERN ILLINOIS...


CITY           SKY/WX    TMP DP  RH WIND       PRES   REMARKS
CHICAGO-OHARE  CLEAR     47  37  68 CALM      29.98F
CHICAGO-MIDWAY CLEAR     50  38  63 CALM      29.98F
MOLINE         CLEAR     48  42  80 CALM      29.99S
ROCKFORD       CLEAR     49  40  71 S3        30.00S
PEORIA         CLEAR     47  42  83 CALM      30.02R
$$

NOTE: "FAIR" INDICATES FEW OR NO CLOUDS BELOW 12,000 FEET WITH NO
SIGNIFICANT WEATHER AND/OR OBSTRUCTIONS TO VISIBILITY. WIND
SPEEDS ARE IN MILES-PER-HOUR.




USA.gov is the U.S. government's official web portal to all federal, state and local government web resources and services.